TimeCDT,TemperatureF,Dew PointF,Humidity,Sea Level PressureIn,VisibilityMPH,Wind Direction,Wind SpeedMPH,Gust SpeedMPH,PrecipitationIn,Events,Conditions,WindDirDegrees,DateUTC
12:53 AM,63.0,54.0,72,30.05,10.0,Calm,Calm,-,N/A,,Clear,0,2012-10-04 05:53:00
1:53 AM,61.0,55.0,81,30.05,10.0,NE,4.6,-,N/A,,Clear,40,2012-10-04 06:53:00
2:53 AM,59.0,55.0,87,30.06,10.0,NE,3.5,-,N/A,,Clear,40,2012-10-04 07:53:00
3:53 AM,59.0,55.0,87,30.07,10.0,ENE,4.6,-,N/A,,Clear,70,2012-10-04 08:53:00
4:53 AM,59.0,55.0,87,30.08,10.0,ENE,3.5,-,N/A,,Clear,60,2012-10-04 09:53:00
5:53 AM,59.0,55.9,90,30.11,10.0,NE,6.9,-,N/A,,Clear,50,2012-10-04 10:53:00
6:53 AM,59.0,55.0,87,30.13,10.0,ENE,4.6,-,N/A,,Clear,60,2012-10-04 11:53:00
7:53 AM,60.1,55.9,86,30.16,7.0,NE,5.8,-,N/A,,Clear,40,2012-10-04 12:53:00
8:53 AM,63.0,57.0,81,30.18,10.0,ENE,4.6,-,N/A,,Clear,60,2012-10-04 13:53:00
9:53 AM,69.1,57.9,68,30.18,10.0,ENE,6.9,-,N/A,,Clear,70,2012-10-04 14:53:00
10:53 AM,73.9,57.0,55,30.17,10.0,Variable,3.5,-,N/A,,Clear,0,2012-10-04 15:53:00
11:53 AM,80.1,57.0,45,30.16,8.0,South,5.8,-,N/A,,Clear,180,2012-10-04 16:53:00
12:53 PM,82.0,57.0,42,30.14,10.0,SW,5.8,-,N/A,,Clear,220,2012-10-04 17:53:00
1:53 PM,86.0,55.9,36,30.10,10.0,SSE,8.1,-,N/A,,Clear,160,2012-10-04 18:53:00
2:53 PM,87.1,55.0,33,30.07,10.0,SSE,5.8,-,N/A,,Clear,150,2012-10-04 19:53:00
3:53 PM,87.1,55.0,33,30.06,10.0,South,9.2,-,N/A,,Clear,170,2012-10-04 20:53:00
4:53 PM,84.9,55.9,37,30.06,10.0,SE,8.1,-,N/A,,Clear,140,2012-10-04 21:53:00
5:53 PM,84.0,57.0,40,30.06,10.0,SE,8.1,-,N/A,,Mostly Cloudy,140,2012-10-04 22:53:00
6:53 PM,81.0,57.0,44,30.07,10.0,SSE,5.8,-,N/A,,Scattered Clouds,150,2012-10-04 23:53:00
7:53 PM,77.0,57.0,50,30.07,10.0,SSE,3.5,-,N/A,,Partly Cloudy,160,2012-10-05 00:53:00
8:53 PM,75.9,55.9,50,30.08,10.0,Calm,Calm,-,N/A,,Mostly Cloudy,0,2012-10-05 01:53:00
9:53 PM,75.9,55.9,50,30.09,10.0,Calm,Calm,-,N/A,,Overcast,0,2012-10-05 02:53:00
10:53 PM,75.0,55.9,51,30.09,10.0,East,4.6,-,N/A,,Overcast,90,2012-10-05 03:53:00
11:53 PM,71.1,57.9,63,30.08,10.0,East,4.6,-,N/A,,Partly Cloudy,90,2012-10-05 04:53:00